Lid_Strength_Index
-1 -1 -1 -1 -1 -2 -1 -1 -1 -1 -1 -0 -0 1 1 1 2 9 11 7 4 1 1 6 8 8 7 9 9 11 15 17 17 16 16 13 14 13 13 12 11 8 10 7 4
-1 -1 -1 -1 -1 -1 -1 -1 -1 -1 -1 0 1 1 1 2 8 10 6 2 1 1 7 9 10 8 10 10 10 12 15 15 14 15 15 13 14 14 13 13 12 8 6 5 4
-1 -1 -1 -1 -1 -1 -2 -1 -1 -0 -0 1 1 1 1 4 10 11 3 2 1 2 6 8 9 9 11 11 12 13 14 13 13 13 13 13 13 13 13 13 12 9 6 6 5
-1 -1 -1 -1 -1 -1 -1 -1 -1 -1 0 0 1 1 2 8 14 10 3 2 1 5 8 9 10 12 12 13 11 14 12 12 12 12 13 13 13 14 14 12 11 9 4 5 6
-1 -1 -1 -1 -1 -1 -1 -1 -1 -0 -0 0 1 1 7 11 12 8 3 5 7 8 10 11 11 12 13 12 12 13 13 12 12 12 13 12 14 14 14 13 7 5 5 5 5
-1 -1 -1 -1 -1 -1 -1 -1 -0 -0 -0 1 1 2 9 13 9 8 8 7 8 8 10 9 11 11 12 13 13 12 12 13 12 12 12 13 14 13 14 12 7 6 6 6 5
-1 -1 -1 -1 -1 -1 -1 -1 -0 -0 0 1 1 8 11 12 9 9 8 8 8 8 10 9 9 11 12 13 11 12 14 13 13 12 13 13 14 15 14 12 9 7 6 6 6
-1 -1 -1 -1 -1 -1 -1 -0 -0 0 0 1 2 10 13 9 9 8 8 8 7 8 8 8 8 10 11 12 12 14 15 17 13 12 12 13 16 14 14 14 14 13 13 11 11
-1 -1 -1 -1 -1 -1 -0 -0 0 0 0 2 8 10 13 6 9 8 8 9 8 8 8 7 9 11 11 13 15 14 18 17 15 13 14 14 16 13 13 13 14 14 13 12 11
-1 -1 -1 -0 -1 -1 -0 1 2 5 7 7 8 10 10 11 9 8 8 8 8 8 9 9 11 14 15 15 18 16 17 15 16 14 15 16 15 15 14 14 15 15 14 13 12
0 -0 -0 1 0 1 3 6 7 10 10 12 12 12 11 9 8 9 9 9 8 10 13 11 14 18 17 15 15 15 15 16 15 14 16 17 16 16 16 16 16 15 14 13 13
0 0 1 1 2 3 7 10 11 10 13 10 10 10 10 10 11 10 8 11 11 14 11 13 17 14 13 13 15 15 16 17 15 15 17 17 17 16 15 15 15 14 15 14 13
1 1 2 2 2 6 8 9 7 8 13 11 11 11 10 9 12 11 9 10 13 15 15 16 14 13 14 16 15 17 17 18 17 17 17 18 18 17 16 15 14 14 13 13 12
2 2 2 2 6 7 9 6 6 8 18 14 12 10 9 10 12 9 9 11 13 15 15 15 13 14 15 16 15 16 16 16 17 19 21 18 22 18 16 15 14 14 14 14 14
2 2 2 3 8 9 8 6 7 9 24 14 12 8 9 11 11 10 8 9 13 14 14 14 14 14 15 15 14 15 15 15 16 21 21 21 26 20 17 17 16 15 14 14 14
2 2 3 5 8 8 6 7 9 18 25 18 13 13 13 12 12 11 10 9 11 13 13 15 13 14 15 14 14 14 16 17 18 23 27 26 25 21 18 17 16 15 14 14 13
2 4 5 6 9 8 8 10 18 22 17 18 16 14 15 16 14 14 15 16 17 20 20 17 16 15 14 16 15 16 21 26 26 26 25 29 24 19 16 15 15 15 14 14 13
2 4 6 8 8 8 10 15 22 23 20 14 14 14 16 15 16 15 16 18 16 17 21 24 23 18 15 16 17 18 22 25 31 28 25 30 25 18 17 15 15 14 14 13 13
3 7 9 8 8 8 12 20 21 18 14 15 14 18 19 15 17 17 17 17 16 16 20 22 21 16 15 15 17 19 24 19 28 35 30 25 22 18 16 17 16 14 14 14 13
8 10 11 8 9 11 16 19 20 14 13 14 17 17 23 21 18 19 19 16 15 15 16 18 22 19 15 15 16 18 17 23 25 28 31 27 30 21 21 20 18 16 16 15 13
10 13 10 9 11 14 19 24 19 14 13 15 16 20 17 20 18 19 18 16 15 16 15 19 22 21 17 22 22 21 22 22 22 22 27 30 23 20 20 22 18 17 15 16 15
12 15 10 10 15 26 22 21 13 14 13 14 15 16 18 17 18 22 18 17 14 16 17 16 18 24 21 18 17 18 20 18 23 26 25 24 22 21 24 24 25 20 16 18 19
15 16 12 11 19 24 20 18 15 15 15 15 15 15 16 21 21 17 17 14 14 15 16 16 23 27 22 21 19 20 18 18 22 20 24 26 21 23 25 24 20 19 17 15 17
15 17 16 15 18 18 21 19 18 14 14 14 15 15 16 21 17 21 17 14 14 14 11 13 18 23 23 23 24 23 20 18 20 27 20 23 18 17 16 20 19 20 19 19 20
16 19 18 21 19 18 17 17 18 19 15 15 17 16 18 22 21 23 18 16 15 13 15 17 25 21 22 23 24 22 21 21 22 19 22 18 23 17 16 21 18 19 22 22 19
17 17 18 20 16 17 16 17 18 18 16 17 19 16 17 22 18 20 18 17 17 16 16 17 26 25 26 21 20 22 19 18 19 18 21 19 19 13 13 27 22 17 22 19 18
15 14 16 17 17 18 18 17 17 16 16 15 16 17 17 16 16 16 16 16 16 17 17 21 26 29 28 26 27 26 23 20 22 25 22 23 18 25 22 22 20 18 22 18 17